(472) Roma
ephemeris date magn radius delta ra dec elong phase
Today19 Sep 202514.12.625 AU3.613 AU12h00m+09°31'8.8°3.4°
Opposition7 May 202613.02.774 AU1.823 AU15h25m+06°13'155.9°8.6°
(472) Roma - 2025-09-19
astro.vanbuitenen.nl


 
-1 year
-1 month
-1 day
Now
+1 day
+1 month
+1 year

The interactive orbit chart above shows the body's path through the solar system and its position at the given date. Green and blue lines are shown perpendicular to the ecliptic plane: Green if the path is above the ecliptic plane, blue if it is below. (Left-click and drag to rotate the view; Right-click and drag to move the view; Use scroll wheel to zoom in our out.)

The orbital elements of Roma are:

            e (Eccentricity)                : 0.0955488
            a (Semimajor axis)              : 2.5430586
            i (Inclination)                 : 15.81615
            Ω (Longitude of ascending node) : 126.99822
            ω (Argument of perihelion)      : 295.85191
            M (Mean anomaly)                : 71.19850
            Epoch                           : 2025 May 05

            L (Longitude of perihelion)     : 63.72818
            B (Latitude of perihelion)      : -14.19812
            P (Orbital period in years)     : 4.06            
        

The light curve chart below shows the estimated development of the minor planet's magnitude.


The all-sky chart below shows the path of the minor planet over the same period as the light curve. The current position is marked yellow.





The following chart shows the path of the minor planet in the next few days. The field of view is optimized for (~10x50) binoculars and finderscopes. A more printer-friendly version of the same chart can be found below.




Ephemerides:
Date       Time       RA (2000)    DEC (2000)    delta   radius  elong  phase   PA    magn
2025-09-19 00:00 UT   12 00 41.7   +09 31 17     3.613    2.625    8.8    3.4    26   14.1 
2025-09-19 03:12 UT   12 00 55.0   +09 30 07     3.613    2.625    8.8    3.4    26   14.1 
2025-09-20 00:00 UT   12 02 21.3   +09 22 29     3.614    2.626    8.8    3.4    23   14.1 
2025-09-21 00:00 UT   12 04 00.9   +09 13 41     3.614    2.627    8.9    3.4    19   14.1 
2025-09-22 00:00 UT   12 05 40.5   +09 04 55     3.614    2.628    9.0    3.4    16   14.1 
2025-09-23 00:00 UT   12 07 20.0   +08 56 09     3.615    2.629    9.1    3.5    12   14.1 
2025-09-24 00:00 UT   12 08 59.4   +08 47 24     3.615    2.629    9.2    3.5     9   14.1 
2025-09-25 00:00 UT   12 10 38.8   +08 38 39     3.615    2.630    9.4    3.6     6   14.1 
2025-09-26 00:00 UT   12 12 18.2   +08 29 56     3.615    2.631    9.6    3.7     3   14.1 
2025-09-27 00:00 UT   12 13 57.4   +08 21 14     3.614    2.632    9.9    3.7     0   14.1 
2025-09-28 00:00 UT   12 15 36.7   +08 12 33     3.614    2.633   10.1    3.8   357   14.1 
2025-09-29 00:00 UT   12 17 15.8   +08 03 53     3.613    2.634   10.4    3.9   355   14.1 
2025-09-30 00:00 UT   12 18 54.9   +07 55 15     3.613    2.635   10.7    4.0   352   14.1 
2025-10-01 00:00 UT   12 20 34.0   +07 46 37     3.612    2.636   11.0    4.2   350   14.1 
2025-10-02 00:00 UT   12 22 12.9   +07 38 01     3.611    2.637   11.4    4.3   348   14.1 
2025-10-03 00:00 UT   12 23 51.8   +07 29 27     3.610    2.638   11.7    4.4   345   14.1 
2025-10-04 00:00 UT   12 25 30.7   +07 20 53     3.609    2.639   12.1    4.5   343   14.2 
2025-10-05 00:00 UT   12 27 09.5   +07 12 22     3.607    2.640   12.5    4.7   342   14.2 
2025-10-06 00:00 UT   12 28 48.2   +07 03 52     3.606    2.640   12.8    4.8   340   14.2 
2025-10-07 00:00 UT   12 30 26.9   +06 55 23     3.604    2.641   13.2    5.0   338   14.2 
2025-10-08 00:00 UT   12 32 05.5   +06 46 57     3.603    2.642   13.7    5.1   336   14.2 


    Terminology:
            
    delta:  distance between minor planet and earth in AU
    radius: distance between minor planet and sun in AU
    magn:   magnitude (brightness) estimate    
    ra:     right ascension in hours (24h = 360deg)
    dec:    declination in degrees
    elong:  elongation in degrees (angle sun-earth-minor planet)    
    phase:  phase angle in degrees (angle sun-minor planet-earth)        
    AU:     Astronomical Unit (mean distance between earth and sun: 149597870.7 km
    

Orbital elements provided by the MPC (Minor Planet Center).
Calculations by a modified version of AAPlus, a C# implementation of the AA+ project by PJ Naughter from the algorithms presented in the book "Astronomical Algorithms" by Jean Meeus.
NGC2000 dso catalog and star labels from VizieR as provided by the Strasbourg astronomical Data Center.
Tycho2 catalog from the ESO archive.